| time (UTC) | temp F | wind direction | speed knots | gust knots | rain 1hr in | rain 24hr in | rain mn in | humidity % | barometer mb |
| 20260506154518 | 55 | 338 | 6.1 | 11.3 | 0.00 | 0.00 | 0.00 | 77 | 1010.7 |
| 20260506153518 | 55 | 0 | 6.1 | 10.4 | 0.00 | 0.00 | 0.00 | 76 | 1010.8 |
| 20260506152517 | 55 | 338 | 6.1 | 13.0 | 0.00 | 0.00 | 0.00 | 76 | 1010.8 |
| 20260506151516 | 55 | 23 | 5.2 | 12.2 | 0.00 | 0.00 | 0.00 | 77 | 1010.7 |
| 20260506150603 | 54 | 23 | 7.0 | 9.6 | 0.00 | 0.00 | 0.00 | 77 | 1010.8 |
| 20260506145518 | 54 | 0 | 5.2 | 9.6 | 0.00 | 0.00 | 0.00 | 76 | 1010.8 |
| 20260506144518 | 55 | 0 | 6.1 | 10.4 | 0.00 | 0.00 | 0.00 | 75 | 1010.8 |
| 20260506143517 | 55 | 338 | 6.1 | 11.3 | 0.00 | 0.00 | 0.00 | 74 | 1010.7 |
| 20260506142516 | 55 | 338 | 5.2 | 11.3 | 0.00 | 0.00 | 0.00 | 74 | 1010.6 |
| 20260506141516 | 56 | 338 | 5.2 | 10.4 | 0.00 | 0.00 | 0.00 | 73 | 1010.7 |
| 20260506140517 | 56 | 0 | 7.0 | 12.2 | 0.00 | 0.00 | 0.00 | 74 | 1010.6 |
| 20260506135537 | 56 | 338 | 6.1 | 12.2 | 0.00 | 0.00 | 0.00 | 73 | 1010.7 |
| 20260506134516 | 56 | 338 | 7.0 | 10.4 | 0.00 | 0.00 | 0.00 | 73 | 1010.7 |
| 20260506133516 | 56 | 338 | 7.0 | 11.3 | 0.00 | 0.00 | 0.00 | 74 | 1010.7 |
| 20260506132519 | 55 | 0 | 6.1 | 10.4 | 0.00 | 0.00 | 0.00 | 74 | 1010.6 |
| 20260506131538 | 55 | 23 | 6.1 | 12.2 | 0.00 | 0.00 | 0.00 | 74 | 1010.7 |
| 20260506130516 | 55 | 0 | 4.3 | 8.7 | 0.00 | 0.00 | 0.00 | 74 | 1010.6 |
| 20260506125518 | 54 | 0 | 5.2 | 8.7 | 0.00 | 0.00 | 0.00 | 74 | 1010.6 |
| 20260506124517 | 54 | 338 | 5.2 | 9.6 | 0.00 | 0.00 | 0.00 | 75 | 1010.6 |
| 20260506123516 | 54 | 338 | 6.1 | 10.4 | 0.00 | 0.00 | 0.00 | 75 | 1010.4 |
| 20260506122516 | 54 | 0 | 5.2 | 8.7 | 0.00 | 0.00 | 0.00 | 75 | 1010.4 |
| 20260506121516 | 55 | 0 | 6.1 | 9.6 | 0.00 | 0.00 | 0.00 | 74 | 1010.4 |
| 20260506120516 | 55 | 23 | 5.2 | 10.4 | 0.00 | 0.00 | 0.00 | 73 | 1010.3 |
| 20260506115536 | 55 | 338 | 7.0 | 10.4 | 0.00 | 0.00 | 0.00 | 73 | 1010.3 |
| 20260506114518 | 55 | 0 | 6.1 | 10.4 | 0.00 | 0.00 | 0.00 | 73 | 1010.4 |
| 20260506113524 | 55 | 23 | 6.1 | 10.4 | 0.00 | 0.00 | 0.00 | 73 | 1010.3 |
| 20260506112518 | 55 | 23 | 6.1 | 9.6 | 0.00 | 0.00 | 0.00 | 73 | 1010.3 |
| 20260506111518 | 55 | 23 | 7.0 | 11.3 | 0.00 | 0.00 | 0.00 | 72 | 1010.3 |
| 20260506110516 | 56 | 23 | 7.0 | 12.2 | 0.00 | 0.00 | 0.00 | 72 | 1010.2 |
| 20260506105516 | 56 | 23 | 7.0 | 10.4 | 0.00 | 0.00 | 0.00 | 72 | 1010.2 |
| 20260506104516 | 55 | 23 | 6.1 | 11.3 | 0.00 | 0.00 | 0.00 | 73 | 1010.3 |
| 20260506103517 | 55 | 0 | 7.0 | 10.4 | 0.00 | 0.00 | 0.00 | 72 | 1010.3 |
| 20260506102517 | 55 | 23 | 6.1 | 9.6 | 0.00 | 0.00 | 0.00 | 72 | 1010.3 |
| 20260506101522 | 55 | 23 | 4.3 | 8.7 | 0.00 | 0.00 | 0.00 | 74 | 1010.3 |
| 20260506100519 | 55 | 23 | 5.2 | 8.7 | 0.00 | 0.00 | 0.00 | 73 | 1010.2 |
| 20260506095516 | 55 | 23 | 4.3 | 7.8 | 0.00 | 0.00 | 0.00 | 74 | 1010.1 |
| 20260506094518 | 55 | 23 | 6.1 | 13.9 | 0.00 | 0.00 | 0.00 | 74 | 1010.1 |
| 20260506093518 | 55 | 338 | 6.1 | 9.6 | 0.00 | 0.00 | 0.00 | 74 | 1009.9 |
| 20260506092517 | 55 | 0 | 6.1 | 10.4 | 0.00 | 0.00 | 0.00 | 73 | 1010.0 |
| 20260506091517 | 54 | 0 | 5.2 | 8.7 | 0.00 | 0.00 | 0.00 | 73 | 1010.0 |
| 20260506090518 | 54 | 0 | 6.1 | 9.6 | 0.00 | 0.00 | 0.00 | 73 | 1009.9 |
| 20260506085516 | 54 | 0 | 7.0 | 11.3 | 0.00 | 0.00 | 0.00 | 74 | 1009.9 |
| 20260506084516 | 54 | 23 | 7.0 | 12.2 | 0.00 | 0.00 | 0.00 | 73 | 1009.8 |
| 20260506083516 | 54 | 23 | 7.8 | 12.2 | 0.00 | 0.00 | 0.00 | 73 | 1009.8 |
| 20260506082518 | 54 | 0 | 7.0 | 13.0 | 0.00 | 0.00 | 0.00 | 73 | 1009.6 |
| 20260506081518 | 54 | 0 | 7.0 | 11.3 | 0.00 | 0.00 | 0.00 | 72 | 1009.6 |
| 20260506080517 | 54 | 23 | 6.1 | 12.2 | 0.00 | 0.00 | 0.00 | 74 | 1009.5 |
| 20260506073517 | 54 | 23 | 6.1 | 11.3 | 0.00 | 0.00 | 0.00 | 74 | 1009.5 |
| 20260506072517 | 53 | 338 | 5.2 | 9.6 | 0.00 | 0.00 | 0.00 | 73 | 1009.4 |
| 20260506071517 | 54 | 0 | 6.1 | 9.6 | 0.00 | 0.00 | 0.00 | 72 | 1009.4 |
| 20260506070516 | 54 | 338 | 6.1 | 8.7 | 0.00 | 0.00 | 0.00 | 73 | 1009.4 |
| 20260506062517 | 52 | 0 | 5.2 | 11.3 | 0.00 | 0.00 | 0.00 | 77 | 1009.4 |
| 20260506061516 | 52 | 23 | 4.3 | 9.6 | 0.00 | 0.00 | 0.00 | 78 | 1009.4 |
| 20260506060519 | 51 | 0 | 4.3 | 9.6 | 0.00 | 0.00 | 0.00 | 79 | 1009.5 |
| 20260506050517 | 49 | 0 | 1.7 | 4.3 | 0.00 | 0.00 | 0.00 | 82 | 1009.4 |
| 20260506044536 | 49 | 0 | 2.6 | 6.1 | 0.00 | 0.00 | 0.00 | 82 | 1009.3 |
| 20260506043516 | 49 | 338 | 3.5 | 5.2 | 0.00 | 0.00 | 0.00 | 82 | 1009.2 |
| 20260506042600 | 49 | 0 | 3.5 | 6.1 | 0.00 | 0.00 | 0.00 | 82 | 1009.4 |
| 20260506041518 | 49 | 0 | 4.3 | 7.0 | 0.00 | 0.00 | 0.00 | 81 | 1009.4 |
| 20260506040519 | 49 | 23 | 4.3 | 7.0 | 0.00 | 0.00 | 0.00 | 81 | 1009.3 |
| 20260506035521 | 49 | 23 | 4.3 | 8.7 | 0.00 | 0.00 | 0.00 | 81 | 1009.3 |
| 20260506034517 | 49 | 0 | 3.5 | 8.7 | 0.00 | 0.00 | 0.00 | 82 | 1009.3 |
| 20260506033516 | 49 | 0 | 4.3 | 7.0 | 0.00 | 0.00 | 0.00 | 82 | 1009.4 |
| 20260506032516 | 50 | 0 | 4.3 | 7.8 | 0.00 | 0.00 | 0.00 | 82 | 1009.4 |
| 20260506031518 | 49 | 0 | 5.2 | 7.8 | 0.00 | 0.00 | 0.00 | 83 | 1009.4 |
| 20260506030517 | 49 | 0 | 3.5 | 7.0 | 0.00 | 0.00 | 0.00 | 84 | 1009.4 |
| 20260506025546 | 49 | 0 | 3.5 | 7.0 | 0.00 | 0.00 | 0.00 | 85 | 1009.4 |
| 20260506024517 | 49 | 0 | 3.5 | 7.8 | 0.00 | 0.00 | 0.00 | 85 | 1009.3 |
| 20260506023517 | 49 | 338 | 2.6 | 5.2 | 0.00 | 0.00 | 0.00 | 86 | 1009.4 |
| 20260506022519 | 48 | 23 | 2.6 | 4.3 | 0.00 | 0.00 | 0.00 | 86 | 1009.3 |
| 20260506021517 | 48 | 0 | 2.6 | 5.2 | 0.00 | 0.00 | 0.00 | 86 | 1009.4 |
| 20260506020518 | 48 | 0 | 2.6 | 7.0 | 0.00 | 0.00 | 0.00 | 86 | 1009.4 |
| 20260506015516 | 48 | 0 | 2.6 | 5.2 | 0.00 | 0.00 | 0.00 | 86 | 1009.5 |
| 20260506014517 | 49 | 0 | 2.6 | 5.2 | 0.00 | 0.00 | 0.00 | 86 | 1009.5 |
| 20260506013516 | 49 | 0 | 2.6 | 5.2 | 0.00 | 0.00 | 0.00 | 86 | 1009.6 |
| 20260506012517 | 49 | 0 | 2.6 | 5.2 | 0.00 | 0.00 | 0.00 | 86 | 1009.6 |
| 20260506011516 | 49 | 0 | 2.6 | 5.2 | 0.00 | 0.00 | 0.00 | 86 | 1009.6 |
| 20260506010559 | 49 | 23 | 3.5 | 7.0 | 0.00 | 0.00 | 0.00 | 86 | 1009.5 |
| 20260506005517 | 49 | 0 | 4.3 | 7.8 | 0.00 | 0.00 | 0.00 | 86 | 1009.6 |
| 20260506004518 | 49 | 0 | 3.5 | 7.0 | 0.00 | 0.00 | 0.00 | 86 | 1009.7 |
| 20260506003517 | 49 | 0 | 3.5 | 6.1 | 0.00 | 0.00 | 0.00 | 86 | 1009.8 |
| 20260506002516 | 49 | 23 | 4.3 | 7.8 | 0.00 | 0.00 | 0.00 | 86 | 1009.8 |
| 20260506001517 | 49 | 23 | 2.6 | 6.1 | 0.00 | 0.00 | 0.00 | 86 | 1009.9 |
| 20260506000516 | 49 | 23 | 3.5 | 7.0 | 0.00 | 0.00 | 0.00 | 86 | 1010.0 |
| 20260505235517 | 49 | 23 | 3.5 | 6.1 | 0.00 | 0.00 | 0.00 | 86 | 1009.9 |
| 20260505234539 | 50 | 23 | 3.5 | 5.2 | 0.00 | 0.00 | 0.00 | 86 | 1010.0 |
| 20260505233517 | 50 | 23 | 3.5 | 8.7 | 0.00 | 0.00 | 0.00 | 85 | 1010.0 |
| 20260505232516 | 50 | 23 | 3.5 | 6.1 | 0.00 | 0.00 | 0.00 | 86 | 1009.9 |
| 20260505231517 | 50 | 23 | 3.5 | 6.1 | 0.00 | 0.00 | 0.00 | 85 | 1010.0 |
| 20260505230516 | 50 | 23 | 3.5 | 6.1 | 0.00 | 0.00 | 0.00 | 85 | 1010.0 |
| 20260505225519 | 50 | 23 | 3.5 | 6.1 | 0.00 | 0.00 | 0.00 | 85 | 1010.0 |
| 20260505224539 | 50 | 23 | 4.3 | 7.8 | 0.00 | 0.00 | 0.00 | 84 | 1010.0 |
| 20260505223517 | 50 | 23 | 4.3 | 7.8 | 0.00 | 0.00 | 0.00 | 84 | 1009.9 |
| 20260505222537 | 50 | 23 | 4.3 | 9.6 | 0.00 | 0.00 | 0.00 | 84 | 1010.0 |
| 20260505221517 | 50 | 23 | 4.3 | 9.6 | 0.00 | 0.00 | 0.00 | 83 | 1010.0 |
| 20260505220526 | 50 | 23 | 3.5 | 7.0 | 0.00 | 0.00 | 0.00 | 83 | 1010.0 |
| 20260505215519 | 50 | 23 | 4.3 | 8.7 | 0.00 | 0.00 | 0.00 | 83 | 1010.1 |
| 20260505214558 | 50 | 23 | 4.3 | 9.6 | 0.00 | 0.00 | 0.00 | 82 | 1010.0 |
| 20260505213537 | 50 | 23 | 5.2 | 8.7 | 0.00 | 0.00 | 0.00 | 82 | 1010.0 |
| 20260505212517 | 50 | 23 | 4.3 | 7.8 | 0.00 | 0.00 | 0.00 | 82 | 1010.0 |
| 20260505211537 | 51 | 23 | 4.3 | 7.8 | 0.00 | 0.00 | 0.00 | 82 | 1010.0 |
| 20260505210517 | 51 | 23 | 3.5 | 6.1 | 0.00 | 0.00 | 0.00 | 82 | 1010.1 |
| 20260505205537 | 51 | 23 | 5.2 | 7.8 | 0.00 | 0.00 | 0.00 | 82 | 1010.1 |
| 20260505204517 | 51 | 23 | 4.3 | 9.6 | 0.00 | 0.00 | 0.00 | 81 | 1010.1 |
| 20260505203543 | 51 | 23 | 5.2 | 7.0 | 0.00 | 0.00 | 0.00 | 81 | 1010.1 |
| 20260505202518 | 51 | 23 | 5.2 | 10.4 | 0.00 | 0.00 | 0.00 | 80 | 1010.0 |
| 20260505201519 | 51 | 23 | 4.3 | 11.3 | 0.00 | 0.00 | 0.00 | 79 | 1010.0 |
| 20260505200524 | 51 | 23 | 6.1 | 11.3 | 0.00 | 0.00 | 0.00 | 79 | 1009.9 |
| 20260505195517 | 51 | 23 | 6.1 | 9.6 | 0.00 | 0.00 | 0.00 | 78 | 1009.8 |
| 20260505194517 | 51 | 23 | 5.2 | 10.4 | 0.00 | 0.00 | 0.00 | 78 | 1009.7 |
| 20260505193517 | 52 | 23 | 6.1 | 10.4 | 0.00 | 0.00 | 0.00 | 78 | 1009.7 |
| 20260505192517 | 52 | 23 | 4.3 | 7.8 | 0.00 | 0.00 | 0.00 | 77 | 1009.6 |
| 20260505191519 | 52 | 23 | 7.0 | 12.2 | 0.00 | 0.00 | 0.00 | 76 | 1009.5 |
| 20260505190518 | 52 | 23 | 6.1 | 10.4 | 0.00 | 0.00 | 0.00 | 77 | 1009.5 |
| 20260505185518 | 53 | 23 | 6.1 | 11.3 | 0.00 | 0.00 | 0.00 | 77 | 1009.4 |
| 20260505184517 | 53 | 23 | 6.1 | 11.3 | 0.00 | 0.00 | 0.00 | 78 | 1009.4 |
| 20260505183557 | 53 | 23 | 5.2 | 10.4 | 0.00 | 0.00 | 0.00 | 78 | 1009.4 |
| 20260505182517 | 53 | 23 | 5.2 | 10.4 | 0.00 | 0.00 | 0.00 | 78 | 1009.4 |
| 20260505181521 | 53 | 23 | 7.0 | 13.0 | 0.00 | 0.00 | 0.00 | 77 | 1009.4 |
| 20260505180517 | 53 | 23 | 8.7 | 14.8 | 0.00 | 0.00 | 0.00 | 77 | 1009.3 |
| 20260505175520 | 54 | 23 | 7.8 | 14.8 | 0.00 | 0.00 | 0.00 | 77 | 1009.4 |
| 20260505174517 | 54 | 23 | 7.0 | 12.2 | 0.00 | 0.00 | 0.00 | 77 | 1009.4 |
| 20260505173517 | 54 | 23 | 8.7 | 14.8 | 0.00 | 0.00 | 0.00 | 76 | 1009.3 |
| 20260505172537 | 54 | 23 | 7.8 | 13.0 | 0.00 | 0.00 | 0.00 | 75 | 1009.4 |
| 20260505171517 | 54 | 23 | 7.0 | 12.2 | 0.00 | 0.00 | 0.00 | 75 | 1009.4 |
| 20260505170517 | 54 | 23 | 7.8 | 12.2 | 0.00 | 0.00 | 0.00 | 76 | 1009.3 |
| 20260505165517 | 55 | 23 | 8.7 | 14.8 | 0.00 | 0.00 | 0.00 | 76 | 1009.3 |
| 20260505164517 | 55 | 23 | 8.7 | 13.0 | 0.00 | 0.00 | 0.00 | 77 | 1009.3 |
| 20260505163559 | 55 | 23 | 8.7 | 13.9 | 0.00 | 0.00 | 0.00 | 77 | 1009.3 |
| 20260505162538 | 56 | 23 | 8.7 | 13.9 | 0.00 | 0.00 | 0.00 | 76 | 1009.2 |
| 20260505161519 | 56 | 23 | 7.0 | 15.6 | 0.00 | 0.00 | 0.00 | 76 | 1009.2 |
| 20260505160517 | 56 | 23 | 7.8 | 13.9 | 0.00 | 0.00 | 0.00 | 75 | 1009.2 |